FW5195 Weather Reports


Display with metric or nautical units.
time (UTC)temp
F
wind
direction
speed
MPH
gust
MPH
rain 1hr
in
rain 24hr
in
rain mn
in
humidity
%
barometer
mb
20260509001530 71 109 0.0 7.0 0.00 0.00 0.00 59 1021.6
20260508234535 71 320 0.0 4.0 0.00 0.00 0.00 56 1021.6
20260508233023 70 191 0.0 3.0 0.00 0.00 0.00 56 1021.5
20260508231519 69 72 0.0 4.0 0.00 0.00 0.00 55 1021.4
20260508224515 65 232 0.0 0.0 0.00 0.00 0.00 74 1021.2
20260508223012 63 251 0.0 0.0 0.00 0.00 0.00 77 1021.2
20260508221507 61 207 0.0 0.0 0.00 0.00 0.00 80 1021.1
20260508214625 57 232 0.0 0.0 0.00 0.00 0.00 86 1020.7
20260508213059 56 232 0.0 0.0 0.00 0.00 0.00 86 1020.5
20260508211559 55 237 0.0 0.0 0.00 0.00 0.00 87 1020.4
20260508204511 54 249 0.0 0.0 0.00 0.00 0.00 87 1020.0
20260508203009 54 233 0.0 0.0 0.00 0.00 0.00 86 1019.7
20260508201512 54 232 0.0 0.0 0.00 0.00 0.00 86 1019.5
20260508194613 54 232 0.0 1.0 0.00 0.00 0.00 85 1019.2
20260508193043 54 234 0.0 1.0 0.00 0.00 0.00 86 1019.1
20260508191538 54 235 0.0 0.0 0.00 0.00 0.00 86 1019.1
20260508184539 53 235 0.0 0.0 0.00 0.00 0.00 87 1018.9
20260508183038 53 238 0.0 0.0 0.00 0.00 0.00 87 1018.8
20260508181600 53 234 0.0 1.0 0.00 0.00 0.00 87 1018.8
20260508174540 53 239 0.0 0.0 0.00 0.00 0.00 87 1018.9
20260508173038 53 234 0.0 0.0 0.00 0.00 0.00 87 1018.8
20260508171534 52 244 0.0 0.0 0.00 0.00 0.00 88 1018.7
20260508164532 52 245 0.0 0.0 0.00 0.00 0.00 87 1018.5
20260508163031 52 250 0.0 0.0 0.00 0.00 0.00 86 1018.5
20260508161532 53 251 0.0 0.0 0.00 0.00 0.00 85 1018.5
20260508154535 52 230 0.0 0.0 0.00 0.00 0.00 85 1018.5
20260508153042 52 237 0.0 0.0 0.00 0.00 0.00 85 1018.6
20260508151532 52 228 0.0 0.0 0.00 0.00 0.00 85 1018.6
20260508144525 52 237 0.0 1.0 0.00 0.00 0.00 85 1018.7
20260508143026 52 248 0.0 0.0 0.00 0.00 0.00 85 1018.6
20260508141524 52 244 0.0 0.0 0.00 0.00 0.00 85 1018.6
20260508134521 52 226 0.0 0.0 0.00 0.00 0.00 86 1018.4
20260508133022 52 216 0.0 0.0 0.00 0.00 0.00 86 1018.3
20260508131521 52 225 0.0 0.0 0.00 0.00 0.00 86 1018.3
20260508124523 52 207 0.0 0.0 0.00 0.00 0.00 85 1018.4
20260508123022 53 192 0.0 0.0 0.00 0.00 0.00 83 1018.4
20260508121522 53 217 0.0 0.0 0.00 0.00 0.00 83 1018.2
20260508114521 54 241 0.0 1.0 0.00 0.00 0.00 83 1018.3
20260508113022 54 230 0.0 1.0 0.00 0.00 0.00 82 1018.2
20260508111521 55 230 0.0 0.0 0.00 0.00 0.00 81 1018.1
20260508104538 55 236 0.0 0.0 0.00 0.00 0.00 80 1018.1
20260508103039 55 212 0.0 0.0 0.00 0.00 0.00 81 1017.8
20260508101538 56 231 0.0 0.0 0.00 0.00 0.00 81 1017.7
20260508094523 57 254 0.0 0.0 0.00 0.00 0.00 79 1017.4
20260508093025 57 248 0.0 0.0 0.00 0.00 0.00 77 1017.3
20260508091527 58 258 0.0 2.0 0.00 0.00 0.00 76 1017.1
20260508084534 59 218 0.0 0.0 0.00 0.00 0.00 75 1016.8
20260508083035 59 234 0.0 0.0 0.00 0.00 0.00 74 1016.7
20260508081535 60 233 0.0 0.0 0.00 0.00 0.00 73 1016.5
20260508074518 61 200 0.0 0.0 0.00 0.00 0.00 68 1016.2
20260508073018 62 81 0.0 0.0 0.00 0.00 0.00 66 1015.8
20260508071526 64 81 0.0 0.0 0.00 0.00 0.00 62 1015.7
20260508064522 67 80 0.0 0.0 0.00 0.00 0.00 54 1015.2
20260508063022 68 75 0.0 1.0 0.00 0.00 0.00 52 1015.1
20260508061525 70 60 0.0 2.0 0.00 0.00 0.00 48 1015.1
20260508054557 70 343 0.0 1.0 0.00 0.00 0.00 48 1015.1
20260508053056 71 309 0.0 0.0 0.00 0.00 0.00 47 1015.1
20260508051550 71 327 0.0 0.0 0.00 0.00 0.00 45 1015.3
20260508044509 71 55 0.0 4.0 0.00 0.00 0.00 44 1015.3
20260508043007 70 2 0.0 1.0 0.00 0.00 0.00 45 1015.3
20260508041505 70 335 0.0 4.0 0.00 0.00 0.00 44 1015.4
20260508034506 70 81 0.0 3.0 0.00 0.00 0.00 43 1015.6
20260508033006 70 326 0.0 3.0 0.00 0.00 0.00 45 1015.9
20260508031505 69 19 0.0 3.0 0.00 0.00 0.00 46 1016.1
20260508024505 70 347 0.0 3.0 0.00 0.00 0.00 40 1016.5
20260508023010 70 308 0.0 4.0 0.00 0.00 0.00 39 1016.8
20260508021504 69 332 0.0 1.0 0.00 0.00 0.00 40 1017.1
20260508014559 69 88 0.0 1.0 0.00 0.00 0.00 39 1017.3
20260508013059 68 344 0.0 3.0 0.00 0.00 0.00 40 1017.6
20260508011606 68 320 0.0 0.0 0.00 0.00 0.00 37 1018.0
20260508004558 67 67 0.0 0.0 0.00 0.00 0.00 38 1018.4
20260508003059 67 347 0.0 0.0 0.00 0.00 0.00 39 1018.6